Hourly Weather Prutz

Today, 22 October, Thursday

Time Temperature Precipitation Wind Pressure Humidity
00:00 +4°C° 0 mm 3 mps 635 mmHg 70%
01:00 +5°C° 0 mm 3 mps 635 mmHg 72%
02:00 +6°C° 0 mm 2 mps 635 mmHg 71%
03:00 +5°C° 0 mm 2 mps 634 mmHg 71%
04:00 +5°C° 0 mm 2 mps 634 mmHg 70%
05:00 +5°C° 0 mm 2 mps 634 mmHg 69%
06:00 +5°C° 0 mm 2 mps 634 mmHg 68%
07:00 +4°C° 0 mm 2 mps 635 mmHg 67%
08:00 +6°C° 0 mm 2 mps 635 mmHg 66%
09:00 +8°C° 0 mm 2 mps 636 mmHg 65%
10:00 +11°C° 0 mm 1 mps 637 mmHg 64%
11:00 +12°C° 0 mm 1 mps 637 mmHg 63%
12:00 +13°C° 0 mm 1 mps 637 mmHg 63%
13:00 +13°C° 0 mm 1 mps 637 mmHg 62%
14:00 +13°C° 0 mm 1 mps 636 mmHg 66%
15:00 +12°C° 0 mm 1 mps 636 mmHg 71%
16:00 +12°C° 0 mm 1 mps 636 mmHg 75%
17:00 +10°C° 0 mm 1 mps 635 mmHg 79%
18:00 +8°C° 0 mm 2 mps 635 mmHg 82%
19:00 +6°C° 0 mm 2 mps 635 mmHg 86%
20:00 +6°C° 0 mm 2 mps 635 mmHg 86%
21:00 +6°C° 0 mm 2 mps 635 mmHg 87%
22:00 +6°C° 0 mm 2 mps 635 mmHg 88%
23:00 +6°C° 0 mm 2 mps 635 mmHg 89%

Tomorrow, 23 October, Friday

Time Temperature Precipitation Wind Pressure Humidity
00:00 +6°C° 0 mm 2 mps 634 mmHg 90%
01:00 +5°C° 0 mm 2 mps 634 mmHg 91%
02:00 +6°C° 0 mm 2 mps 634 mmHg 91%
03:00 +6°C° 0 mm 2 mps 634 mmHg 90%
04:00 +7°C° 0 mm 2 mps 634 mmHg 90%
05:00 +7°C° 0 mm 2 mps 634 mmHg 90%
06:00 +7°C° 0 mm 2 mps 633 mmHg 90%
07:00 +7°C° 0 mm 2 mps 633 mmHg 90%
08:00 +8°C° 0 mm 2 mps 634 mmHg 89%
09:00 +8°C° 0 mm 2 mps 634 mmHg 87%
10:00 +9°C° 0 mm 2 mps 634 mmHg 85%
11:00 +10°C° 0 mm 3 mps 634 mmHg 83%
12:00 +10°C° 0 mm 3 mps 634 mmHg 81%
13:00 +11°C° 0 mm 3 mps 633 mmHg 79%
14:00 +11°C° 0 mm 3 mps 633 mmHg 80%
15:00 +10°C° 0 mm 3 mps 633 mmHg 82%
16:00 +10°C° 0 mm 3 mps 632 mmHg 84%
17:00 +9°C° 0.4 mm 2 mps 633 mmHg 87%
18:00 +8°C° 0.4 mm 2 mps 633 mmHg 90%
19:00 +8°C° 0.4 mm 2 mps 633 mmHg 94%
20:00 +7°C° 2 mm 2 mps 633 mmHg 95%
21:00 +7°C° 2 mm 2 mps 633 mmHg 96%
22:00 +7°C° 2 mm 1 mps 633 mmHg 97%
23:00 +7°C° 1.7 mm 1 mps 633 mmHg 97%

Day after tomorrow, 24 October, Saturday

Time Temperature Precipitation Wind Pressure Humidity
00:00 +7°C° 1.7 mm 1 mps 633 mmHg 96%
01:00 +7°C° 1.7 mm 1 mps 633 mmHg 95%
02:00 +7°C° 0.6 mm 1 mps 633 mmHg 96%
03:00 +7°C° 0.6 mm 1 mps 633 mmHg 96%
04:00 +6°C° 0.6 mm 1 mps 633 mmHg 96%
05:00 +6°C° 0.5 mm 1 mps 633 mmHg 97%
06:00 +6°C° 0.5 mm 1 mps 633 mmHg 97%
07:00 +6°C° 0.5 mm 1 mps 633 mmHg 97%
08:00 +7°C° 0.2 mm 1 mps 634 mmHg 96%
09:00 +7°C° 0.2 mm 1 mps 634 mmHg 94%
10:00 +8°C° 0.2 mm 1 mps 634 mmHg 93%
11:00 +8°C° 0 mm 1 mps 634 mmHg 90%
12:00 +9°C° 0 mm 1 mps 634 mmHg 88%
13:00 +9°C° 0 mm 1 mps 634 mmHg 85%
14:00 +9°C° 0 mm 1 mps 634 mmHg 85%
15:00 +8°C° 0 mm 0 mps 634 mmHg 84%
16:00 +8°C° 0 mm 0 mps 634 mmHg 84%
17:00 +8°C° 0 mm 1 mps 633 mmHg 85%
18:00 +6°C° 0 mm 1 mps 633 mmHg 87%
19:00 +5°C° 0 mm 1 mps 633 mmHg 89%
20:00 +5°C° 0 mm 1 mps 633 mmHg 88%
21:00 +3°C° 0 mm 2 mps 633 mmHg 87%
22:00 +3°C° 0 mm 2 mps 633 mmHg 86%
23:00 +3°C° 0 mm 2 mps 633 mmHg 86%

, 25 October, Sunday

Time Temperature Precipitation Wind Pressure Humidity
00:00 +2°C° 0 mm 3 mps 632 mmHg 86%
01:00 +2°C° 0 mm 3 mps 632 mmHg 86%
02:00 +2°C° 0 mm 3 mps 632 mmHg 86%
03:00 +2°C° 0 mm 3 mps 632 mmHg 86%
04:00 +2°C° 0 mm 3 mps 632 mmHg 86%
05:00 +2°C° 0 mm 3 mps 631 mmHg 86%
06:00 +2°C° 0 mm 3 mps 631 mmHg 85%
07:00 +3°C° 0 mm 2 mps 631 mmHg 85%
08:00 +5°C° 0 mm 2 mps 632 mmHg 81%
09:00 +7°C° 0 mm 2 mps 632 mmHg 77%
10:00 +9°C° 0 mm 2 mps 632 mmHg 74%
11:00 +9°C° 0 mm 2 mps 632 mmHg 71%
12:00 +10°C° 0 mm 2 mps 632 mmHg 68%
13:00 +12°C° 0 mm 2 mps 632 mmHg 65%
14:00 +10°C° 0 mm 2 mps 631 mmHg 69%
15:00 +10°C° 0 mm 2 mps 631 mmHg 72%
16:00 +9°C° 0 mm 2 mps 630 mmHg 75%
17:00 +7°C° 0 mm 3 mps 629 mmHg 79%
18:00 +5°C° 0 mm 3 mps 629 mmHg 83%
19:00 +3°C° 0 mm 3 mps 628 mmHg 86%
20:00 +3°C° 0 mm 3 mps 628 mmHg 87%
21:00 +3°C° 0 mm 3 mps 628 mmHg 88%
22:00 +2°C° 0 mm 3 mps 628 mmHg 88%
23:00 +2°C° 0 mm 3 mps 627 mmHg 89%

25 October, Sunday

Time Temperature Precipitation Wind Pressure Humidity
00:00 +2°C° 0 mm 3 mps 632 mmHg 86%
01:00 +2°C° 0 mm 3 mps 632 mmHg 86%
02:00 +2°C° 0 mm 3 mps 632 mmHg 86%
03:00 +2°C° 0 mm 3 mps 632 mmHg 86%
04:00 +2°C° 0 mm 3 mps 632 mmHg 86%
05:00 +2°C° 0 mm 3 mps 631 mmHg 86%
06:00 +2°C° 0 mm 3 mps 631 mmHg 85%
07:00 +3°C° 0 mm 2 mps 631 mmHg 85%
08:00 +5°C° 0 mm 2 mps 632 mmHg 81%
09:00 +7°C° 0 mm 2 mps 632 mmHg 77%
10:00 +9°C° 0 mm 2 mps 632 mmHg 74%
11:00 +9°C° 0 mm 2 mps 632 mmHg 71%
12:00 +10°C° 0 mm 2 mps 632 mmHg 68%
13:00 +12°C° 0 mm 2 mps 632 mmHg 65%
14:00 +10°C° 0 mm 2 mps 631 mmHg 69%
15:00 +10°C° 0 mm 2 mps 631 mmHg 72%
16:00 +9°C° 0 mm 2 mps 630 mmHg 75%
17:00 +7°C° 0 mm 3 mps 629 mmHg 79%
18:00 +5°C° 0 mm 3 mps 629 mmHg 83%
19:00 +3°C° 0 mm 3 mps 628 mmHg 86%
20:00 +3°C° 0 mm 3 mps 628 mmHg 87%
21:00 +3°C° 0 mm 3 mps 628 mmHg 88%
22:00 +2°C° 0 mm 3 mps 628 mmHg 88%
23:00 +2°C° 0 mm 3 mps 627 mmHg 89%

26 October, Monday

Time Temperature Precipitation Wind Pressure Humidity
00:00 +2°C° 0 mm 3 mps 627 mmHg 89%
01:00 +2°C° 0 mm 3 mps 626 mmHg 90%
02:00 +2°C° 0 mm 3 mps 626 mmHg 89%
03:00 +2°C° 0 mm 3 mps 626 mmHg 89%
04:00 +2°C° 0 mm 3 mps 625 mmHg 89%
05:00 +2°C° 0 mm 3 mps 625 mmHg 89%
06:00 +2°C° 0 mm 3 mps 625 mmHg 88%
07:00 +1°C° 0 mm 3 mps 625 mmHg 88%
08:00 +3°C° 0 mm 3 mps 625 mmHg 83%
09:00 +5°C° 0 mm 2 mps 625 mmHg 78%
10:00 +6°C° 0 mm 2 mps 625 mmHg 73%
11:00 +7°C° 0 mm 2 mps 626 mmHg 73%
12:00 +8°C° 0 mm 2 mps 626 mmHg 72%
13:00 +8°C° 0 mm 2 mps 626 mmHg 72%
14:00 +7°C° 0.3 mm 2 mps 625 mmHg 79%
15:00 +6°C° 0.3 mm 2 mps 625 mmHg 86%
16:00 +5°C° 0.3 mm 2 mps 624 mmHg 93%
17:00 +5°C° 1.5 mm 2 mps 624 mmHg 95%
18:00 +5°C° 1.5 mm 1 mps 624 mmHg 96%
19:00 +5°C° 1.5 mm 1 mps 624 mmHg 98%
20:00 +4°C° 1.9 mm 1 mps 624 mmHg 98%
21:00 +4°C° 1.9 mm 1 mps 624 mmHg 98%
22:00 +3°C° 1.9 mm 1 mps 624 mmHg 98%
23:00 +3°C° 2.6 mm 1 mps 623 mmHg 98%

27 October, Tuesday

Time Temperature Precipitation Wind Pressure Humidity
00:00 +3°C° 2.6 mm 1 mps 623 mmHg 98%
01:00 +2°C° 2.6 mm 1 mps 623 mmHg 98%
02:00 +2°C° 2.3 mm 1 mps 623 mmHg 98%
03:00 +1°C° 2.3 mm 2 mps 623 mmHg 98%
04:00 +1°C° 2.3 mm 2 mps 623 mmHg 98%
05:00 +1°C° 2.2 mm 2 mps 623 mmHg 98%
06:00 +1°C° 2.2 mm 2 mps 624 mmHg 98%
07:00 +1°C° 2.2 mm 2 mps 624 mmHg 98%
08:00 +1°C° 1.2 mm 2 mps 624 mmHg 98%
09:00 +1°C° 1.2 mm 2 mps 625 mmHg 98%
10:00 +2°C° 1.2 mm 2 mps 625 mmHg 98%
11:00 +2°C° 1.5 mm 2 mps 625 mmHg 99%
12:00 +3°C° 1.5 mm 1 mps 626 mmHg 99%
13:00 +3°C° 1.5 mm 1 mps 626 mmHg 99%
14:00 +3°C° 1.3 mm 1 mps 626 mmHg 99%
15:00 +3°C° 1.3 mm 1 mps 626 mmHg 99%
16:00 +3°C° 1.3 mm 1 mps 626 mmHg 98%
17:00 +3°C° 0.9 mm 1 mps 627 mmHg 98%
18:00 +2°C° 0.9 mm 1 mps 627 mmHg 98%
19:00 +2°C° 0.9 mm 1 mps 627 mmHg 98%
20:00 +2°C° 0.4 mm 1 mps 628 mmHg 98%
21:00 +1°C° 0.4 mm 1 mps 628 mmHg 98%
22:00 +1°C° 0.4 mm 1 mps 628 mmHg 97%
23:00 0°C° 0.1 mm 1 mps 628 mmHg 97%
Show more